Honolulu, HI

12:39 AM HST on May 27, 2017 (GMT -1000)
Honolulu International

Weather History for PHNL - April, 2014

Change the Weather History Date:

Thursday, April 17, 2014

  Actual Average Record
Temperature  
Mean Temperature 79 °F 76 °F  
Max Temperature 85 °F 83 °F 88 °F (1988)
Min Temperature 73 °F 70 °F 63 °F (1949)
Degree Days  
Heating Degree Days 0 0  
Month to date heating degree days 0 0  
Since 1 July heating degree days 0 0  
Cooling Degree Days 14 11  
Month to date cooling degree days 200 187  
Year to date cooling degree days 1028 962  
Growing Degree Days 28 (Base 50)    
Moisture  
Dew Point 65 °F    
Average Humidity 62    
Maximum Humidity 73    
Minimum Humidity 51    
Precipitation  
Precipitation T in 0.01 in 0.14 in (1954)
Month to date precipitation 0.16 0.44  
Year to date precipitation 6.45 6.76  
Snow  
Snow 0.00 in - - ()
Month to date snowfall 0.0  
Since 1 July snowfall 0.0  
Snow Depth 0.00 in    
Sea Level Pressure  
Sea Level Pressure 30.09 in    
Wind  
Wind Speed 14 mph (NE)    
Max Wind Speed 24 mph    
Max Gust Speed 29 mph    
Visibility 10 miles    
Events Rain    
T = Trace of Precipitation, MM = Missing Value Source: NWS Daily Summary

Daily Weather History Graph

Daily Weather History Graph

Search for Another Location

Airport or City:

Trip Planner

Search our weather history database for the weather conditions in past years. The results will help you decide how hot, cold, wet, or windy it might be!

Date:

Astronomy

Apr. 17, 2014 Rise Set
Actual Time 6:10 AM HST 6:51 PM HST
Civil Twilight 5:48 AM HST 7:14 PM HST
Nautical Twilight 5:21 AM HST 7:41 PM HST
Astronomical Twilight 4:54 AM HST 8:08 PM HST
Moon 9:33 PM HST (4/17) 8:05 AM HST (4/17)
Length of Visible Light 13h 26m
Length of Day
12h 41m
Waning Gibbous, 92% of the Moon is Illuminated
Apr 17
Waning Gibbous
Apr 21
Last Quarter
Apr 28
New
May 6
First Quarter
May 14
Full

Hourly Weather History & Observations

Time (HST) Temp. Heat Index Dew Point Humidity Pressure Visibility Wind Dir Wind Speed Gust Speed Precip Events Conditions
12:53 AM 73.9 °F - 64.9 °F 73% 30.12 in 10.0 mi ENE 11.5 mph - 0.00 in Rain Light Rain
1:53 AM 73.0 °F - 64.0 °F 73% 30.10 in 10.0 mi ENE 12.7 mph - 0.00 in   Scattered Clouds
2:53 AM 73.0 °F - 64.0 °F 73% 30.08 in 10.0 mi NE 6.9 mph - N/A   Partly Cloudy
3:53 AM 73.9 °F - 63.0 °F 68% 30.07 in 10.0 mi NE 6.9 mph - N/A   Partly Cloudy
4:53 AM 73.9 °F - 63.0 °F 68% 30.08 in 10.0 mi ENE 11.5 mph - N/A   Partly Cloudy
5:53 AM 73.9 °F - 64.0 °F 71% 30.09 in 10.0 mi ENE 13.8 mph - N/A   Scattered Clouds
6:53 AM 73.9 °F - 63.0 °F 68% 30.10 in 10.0 mi ENE 10.4 mph 19.6 mph N/A   Partly Cloudy
7:53 AM 77.0 °F - 63.0 °F 62% 30.11 in 10.0 mi NE 12.7 mph 24.2 mph N/A   Scattered Clouds
8:53 AM 79.0 °F - 62.1 °F 56% 30.12 in 10.0 mi ENE 18.4 mph - N/A   Scattered Clouds
9:53 AM 81.0 °F 82.2 °F 63.0 °F 54% 30.12 in 10.0 mi ENE 17.3 mph 26.5 mph N/A   Scattered Clouds
10:53 AM 82.9 °F 84.4 °F 64.0 °F 53% 30.11 in 10.0 mi ENE 19.6 mph 26.5 mph N/A   Scattered Clouds
11:53 AM 82.9 °F 84.6 °F 64.9 °F 54% 30.10 in 10.0 mi ENE 16.1 mph - N/A   Mostly Cloudy
12:53 PM 84.0 °F 85.4 °F 64.0 °F 51% 30.08 in 10.0 mi ENE 17.3 mph 24.2 mph N/A   Scattered Clouds
1:53 PM 84.0 °F 85.4 °F 64.0 °F 51% 30.06 in 10.0 mi ENE 18.4 mph 26.5 mph N/A   Mostly Cloudy
2:53 PM 84.9 °F 86.1 °F 64.0 °F 49% 30.04 in 10.0 mi ENE 20.7 mph 28.8 mph N/A   Mostly Cloudy
3:53 PM 82.9 °F 84.4 °F 64.0 °F 53% 30.04 in 10.0 mi ENE 16.1 mph - N/A   Scattered Clouds
4:53 PM 82.9 °F 84.6 °F 64.9 °F 54% 30.04 in 10.0 mi NNE 9.2 mph - N/A   Scattered Clouds
5:53 PM 80.1 °F 81.9 °F 64.9 °F 60% 30.05 in 10.0 mi NNE 13.8 mph - N/A   Mostly Cloudy
6:53 PM 77.0 °F - 66.0 °F 69% 30.09 in 10.0 mi NNE 3.5 mph - 0.00 in   Mostly Cloudy
7:53 PM 75.9 °F - 66.9 °F 74% 30.10 in 10.0 mi NE 6.9 mph - N/A   Scattered Clouds
8:53 PM 75.9 °F - 66.9 °F 74% 30.12 in 10.0 mi ENE 10.4 mph - 0.00 in   Scattered Clouds
9:53 PM 75.0 °F - 66.9 °F 76% 30.13 in 10.0 mi ENE 4.6 mph - 0.00 in   Mostly Cloudy
10:53 PM 73.9 °F - 68.0 °F 82% 30.13 in 10.0 mi ENE 8.1 mph - 0.00 in   Mostly Cloudy
11:53 PM 73.9 °F - 66.0 °F 76% 30.12 in 10.0 mi NNE 3.5 mph - N/A   Scattered Clouds